When you browse on this site, cookies collect data to enhance your experience and personalize the content and advertising you see.
Visit our Privacy Policy to learn more. By continuing to use the site, you agree to this use of cookies and data.
  • In Hungary
  • List of Countries
  • For 7 days
  • Water Temperature
  • Weather Map
  • News
  • Weather Widgets
  • user-avatar
    Login

    Hourly Weather Penno-Byrdino

    Today, 24 August, Saturday

    Time Temperature Precipitation Wind Pressure Humidity
    00:00 +14°C° 0 mm 3 mps 749 mmHg 89%
    01:00 +14°C° 0 mm 3 mps 749 mmHg 90%
    02:00 +14°C° 0 mm 3 mps 750 mmHg 91%
    03:00 +13°C° 0 mm 3 mps 749 mmHg 91%
    04:00 +14°C° 0 mm 2 mps 749 mmHg 92%
    05:00 +14°C° 0 mm 2 mps 749 mmHg 92%
    06:00 +15°C° 0 mm 2 mps 749 mmHg 86%
    07:00 +17°C° 0 mm 2 mps 749 mmHg 80%
    08:00 +19°C° 0 mm 3 mps 750 mmHg 72%
    09:00 +20°C° 0 mm 2 mps 750 mmHg 66%
    10:00 +21°C° 0 mm 2 mps 749 mmHg 60%
    11:00 +23°C° 0 mm 2 mps 749 mmHg 54%
    12:00 +24°C° 0 mm 2 mps 749 mmHg 51%
    13:00 +24°C° 0 mm 2 mps 749 mmHg 47%
    14:00 +25°C° 0 mm 2 mps 749 mmHg 44%
    15:00 +25°C° 0 mm 2 mps 748 mmHg 48%
    16:00 +24°C° 0 mm 2 mps 748 mmHg 51%
    17:00 +24°C° 0 mm 2 mps 748 mmHg 55%
    18:00 +21°C° 0 mm 2 mps 748 mmHg 58%
    19:00 +19°C° 0 mm 2 mps 748 mmHg 62%
    20:00 +17°C° 0 mm 2 mps 748 mmHg 65%
    21:00 +17°C° 0 mm 2 mps 748 mmHg 68%
    22:00 +16°C° 0 mm 2 mps 748 mmHg 71%
    23:00 +15°C° 0 mm 2 mps 748 mmHg 74%

    Tomorrow, 25 August, Sunday

    Time Temperature Precipitation Wind Pressure Humidity
    00:00 +15°C° 0 mm 2 mps 748 mmHg 77%
    01:00 +15°C° 0 mm 2 mps 748 mmHg 80%
    02:00 +14°C° 0 mm 2 mps 748 mmHg 83%
    03:00 +14°C° 0 mm 2 mps 748 mmHg 86%
    04:00 +14°C° 0 mm 2 mps 748 mmHg 89%
    05:00 +14°C° 0 mm 2 mps 748 mmHg 92%
    06:00 +16°C° 0 mm 2 mps 748 mmHg 86%
    07:00 +17°C° 0 mm 3 mps 749 mmHg 81%
    08:00 +19°C° 0 mm 3 mps 749 mmHg 75%
    09:00 +20°C° 0 mm 3 mps 749 mmHg 70%
    10:00 +21°C° 0 mm 3 mps 749 mmHg 65%
    11:00 +23°C° 0 mm 4 mps 749 mmHg 60%
    12:00 +23°C° 0 mm 4 mps 749 mmHg 58%
    13:00 +23°C° 0 mm 4 mps 749 mmHg 56%
    14:00 +23°C° 0 mm 4 mps 749 mmHg 54%
    15:00 +22°C° 0 mm 4 mps 749 mmHg 56%
    16:00 +22°C° 0 mm 3 mps 749 mmHg 58%
    17:00 +21°C° 0 mm 3 mps 749 mmHg 61%
    18:00 +20°C° 0 mm 3 mps 749 mmHg 65%
    19:00 +18°C° 0 mm 3 mps 749 mmHg 70%
    20:00 +16°C° 0 mm 3 mps 750 mmHg 75%
    21:00 +16°C° 0 mm 2 mps 750 mmHg 77%
    22:00 +15°C° 0 mm 2 mps 750 mmHg 80%
    23:00 +15°C° 0 mm 2 mps 750 mmHg 83%

    Day after tomorrow, 26 August, Monday

    Time Temperature Precipitation Wind Pressure Humidity
    00:00 +14°C° 0 mm 2 mps 750 mmHg 84%
    01:00 +14°C° 0 mm 2 mps 750 mmHg 86%
    02:00 +13°C° 0 mm 2 mps 751 mmHg 88%
    03:00 +13°C° 0 mm 2 mps 751 mmHg 89%
    04:00 +13°C° 0 mm 2 mps 750 mmHg 90%
    05:00 +13°C° 0 mm 2 mps 750 mmHg 91%
    06:00 +14°C° 0 mm 2 mps 751 mmHg 85%
    07:00 +16°C° 0 mm 2 mps 751 mmHg 79%
    08:00 +18°C° 0 mm 2 mps 751 mmHg 73%
    09:00 +19°C° 0 mm 2 mps 751 mmHg 67%
    10:00 +20°C° 0 mm 2 mps 751 mmHg 61%
    11:00 +21°C° 0 mm 2 mps 751 mmHg 54%
    12:00 +23°C° 0 mm 2 mps 751 mmHg 52%
    13:00 +24°C° 0 mm 1 mps 750 mmHg 49%
    14:00 +24°C° 0 mm 1 mps 750 mmHg 46%
    15:00 +24°C° 0 mm 1 mps 750 mmHg 49%
    16:00 +22°C° 0 mm 0 mps 749 mmHg 52%
    17:00 +22°C° 0 mm 0 mps 749 mmHg 54%
    18:00 +20°C° 0 mm 0 mps 749 mmHg 57%
    19:00 +18°C° 0 mm 0 mps 749 mmHg 61%
    20:00 +16°C° 0 mm 0 mps 749 mmHg 64%
    21:00 +15°C° 0 mm 0 mps 749 mmHg 66%
    22:00 +15°C° 0 mm 0 mps 748 mmHg 68%
    23:00 +15°C° 0 mm 0 mps 748 mmHg 70%

    27 August, Tuesday

    Time Temperature Precipitation Wind Pressure Humidity
    00:00 +15°C° 0 mm 1 mps 748 mmHg 72%
    01:00 +15°C° 0 mm 1 mps 748 mmHg 74%
    02:00 +14°C° 0 mm 1 mps 747 mmHg 76%
    03:00 +14°C° 0 mm 1 mps 747 mmHg 78%
    04:00 +14°C° 0 mm 1 mps 747 mmHg 79%
    05:00 +13°C° 0 mm 1 mps 747 mmHg 81%
    06:00 +15°C° 0 mm 2 mps 747 mmHg 77%
    07:00 +17°C° 0 mm 2 mps 747 mmHg 73%
    08:00 +18°C° 0 mm 3 mps 747 mmHg 68%
    09:00 +20°C° 0 mm 3 mps 746 mmHg 64%
    10:00 +21°C° 0 mm 3 mps 746 mmHg 60%
    11:00 +22°C° 0 mm 4 mps 746 mmHg 56%
    12:00 +23°C° 0 mm 4 mps 745 mmHg 56%
    13:00 +23°C° 0 mm 4 mps 745 mmHg 55%
    14:00 +25°C° 0 mm 5 mps 745 mmHg 55%
    15:00 +23°C° 0.2 mm 4 mps 744 mmHg 61%
    16:00 +22°C° 0.2 mm 4 mps 744 mmHg 66%
    17:00 +21°C° 0.2 mm 4 mps 744 mmHg 72%
    18:00 +20°C° 0.1 mm 4 mps 744 mmHg 76%
    19:00 +19°C° 0.1 mm 4 mps 744 mmHg 80%
    20:00 +17°C° 0.1 mm 4 mps 744 mmHg 85%
    21:00 +16°C° 0 mm 3 mps 744 mmHg 87%
    22:00 +16°C° 0 mm 3 mps 744 mmHg 90%
    23:00 +14°C° 0 mm 3 mps 744 mmHg 92%

    28 August, Wednesday

    Time Temperature Precipitation Wind Pressure Humidity
    00:00 +13°C° 0 mm 3 mps 745 mmHg 92%
    01:00 +12°C° 0 mm 3 mps 745 mmHg 92%
    02:00 +12°C° 0 mm 3 mps 745 mmHg 92%
    03:00 +11°C° 0 mm 3 mps 745 mmHg 93%
    04:00 +10°C° 0 mm 3 mps 746 mmHg 93%
    05:00 +10°C° 0 mm 3 mps 746 mmHg 93%
    06:00 +11°C° 0 mm 3 mps 746 mmHg 85%
    07:00 +12°C° 0 mm 4 mps 746 mmHg 76%
    08:00 +12°C° 0 mm 4 mps 747 mmHg 67%
    09:00 +13°C° 0 mm 4 mps 747 mmHg 62%
    10:00 +14°C° 0 mm 4 mps 747 mmHg 56%
    11:00 +15°C° 0 mm 4 mps 747 mmHg 50%
    12:00 +16°C° 0 mm 5 mps 747 mmHg 48%
    13:00 +16°C° 0 mm 5 mps 747 mmHg 46%
    14:00 +17°C° 0 mm 5 mps 747 mmHg 45%
    15:00 +17°C° 0 mm 4 mps 747 mmHg 48%
    16:00 +15°C° 0 mm 4 mps 747 mmHg 51%
    17:00 +15°C° 0 mm 4 mps 747 mmHg 54%
    18:00 +13°C° 0 mm 4 mps 747 mmHg 58%
    19:00 +11°C° 0 mm 3 mps 747 mmHg 62%
    20:00 +10°C° 0 mm 3 mps 748 mmHg 66%
    21:00 +9°C° 0 mm 3 mps 748 mmHg 69%
    22:00 +8°C° 0 mm 3 mps 748 mmHg 72%
    23:00 +8°C° 0 mm 2 mps 748 mmHg 74%

    29 August, Thursday

    Time Temperature Precipitation Wind Pressure Humidity
    00:00 +7°C° 0 mm 2 mps 748 mmHg 75%
    01:00 +7°C° 0 mm 2 mps 748 mmHg 76%
    02:00 +7°C° 0 mm 1 mps 748 mmHg 77%
    03:00 +6°C° 0 mm 2 mps 748 mmHg 79%
    04:00 +6°C° 0 mm 2 mps 749 mmHg 80%
    05:00 +5°C° 0 mm 2 mps 749 mmHg 81%
    06:00 +7°C° 0 mm 3 mps 749 mmHg 76%
    07:00 +9°C° 0 mm 3 mps 749 mmHg 71%
    08:00 +10°C° 0 mm 3 mps 749 mmHg 65%
    09:00 +12°C° 0 mm 4 mps 749 mmHg 61%
    10:00 +13°C° 0 mm 4 mps 749 mmHg 57%
    11:00 +14°C° 0 mm 4 mps 749 mmHg 53%
    12:00 +15°C° 0 mm 4 mps 748 mmHg 52%
    13:00 +15°C° 0 mm 4 mps 748 mmHg 51%
    14:00 +17°C° 0 mm 4 mps 748 mmHg 51%
    15:00 +15°C° 0 mm 4 mps 748 mmHg 54%
    16:00 +15°C° 0 mm 4 mps 748 mmHg 57%
    17:00 +14°C° 0 mm 4 mps 748 mmHg 61%
    18:00 +13°C° 0 mm 3 mps 748 mmHg 66%
    19:00 +11°C° 0 mm 3 mps 748 mmHg 71%
    20:00 +9°C° 0 mm 2 mps 748 mmHg 76%
    21:00 +9°C° 0 mm 2 mps 748 mmHg 77%
    22:00 +8°C° 0 mm 2 mps 748 mmHg 78%
    23:00 +8°C° 0 mm 2 mps 748 mmHg 79%
    Show more